sat.trackr.live / text

‹ back to catalog

ONEWEB-0641

NORAD 55805 · 2023-029K

PAYLOAD ACTIVE UNKNOWN

§ Identity

Operator
Country
UK
Launch date
2023-03-09
Launch site
AFETR
Launch vehicle
Mass (kg)
RCS (m²)

Purposes: comms

External: N2YO · Heavens-Above · Gunter

§ Orbital elements

Epoch: 2026-09-20T00:36:52.139808Z

Period
109.11 min
Inclination
87.9110°
Eccentricity
0.0001995
Mean motion
13.19730708 rev/d
Perigee alt
1,184.2 km
Apogee alt
1,187.3 km
Semi-major
7,563.9 km
B*
-3.7929e-3
RAAN
286.0737°
Arg perigee
92.6743°
Mean anomaly
267.4618°
Rev number
17,142

§ Raw data

ONEWEB-06411 55805U 23029K   26263.02560347 -.00001505  00000+0 -37929-2 0  99992 55805  87.9110 286.0737 0001995  92.6743 267.4618 13.19730708171427

JSON: /api/v1/satellites/55805 · /tle

For live sub-satellite position, see the globe view (requires WebGL).

§ Visibility from observer

Set your observer location to see the next 7 days of passes ≥ 10°. The values pass through the URL so the page stays shareable.

No JS? Fill the form by hand. The geolocation button needs JavaScript.